"Pseudo-MPEC" for xkos464

Created 2024 Sep 7 19:22:30 UT using Find_Orb

Click here for an explanation of pseudo-MPECs

 
 Astrometry: 
     xkos464*KB2024 09 05.86257 23 44 03.221-35 04 33.20   ~95NM 19.6 GXNEOCPL87
     xkos464 KB2024 09 05.86934 23 44 07.421-35 06 35.24   ~95NM 19.2 GXNEOCPL87
     xkos464 KB2024 09 05.87610 23 44 11.618-35 08 38.83   ~95NM 18.6 GXNEOCPL87
     xkos464 KB2024 09 05.99439 23 45 22.550-35 44 59.86   ~963q 20.0 GXNEOCPL87
     xkos464 KB2024 09 05.99956 23 45 25.721-35 46 35.98   ~963q 19.9 GXNEOCPL87
     xkos464 KB2024 09 06.00470 23 45 28.987-35 48 13.10   ~963q 19.7 GXNEOCPL87
     xkos464  C2024 09 06.00667 23 45 25.79 -35 46 07.4    ~960q 19.6 GVNEOCPM28
     xkos464  C2024 09 06.00870 23 45 27.20 -35 46 45.7    ~960q 18.9 GVNEOCPM28
     xkos464  C2024 09 06.01073 23 45 28.58 -35 47 21.8    ~960q 20.1 GVNEOCPM28
     xkos464  C2024 09 06.05488723 47 40.31 -35 58 03.7    ~9637       WNEOCPX09
     xkos464  C2024 09 06.06188723 47 47.33 -36 00 44.3    ~9637       WNEOCPX09
     xkos464 KB2024 09 06.06912 23 46 13.375-36 08 31.24   ~968q 18.8 GXNEOCPL87
     xkos464 KB2024 09 06.07587 23 46 18.571-36 10 40.26   ~968q 19.3 GXNEOCPL87
     xkos464 KB2024 09 06.08262 23 46 23.914-36 12 50.15   ~968q 19.3 GXNEOCPL87
     xkos464 4B2024 09 06.82465700 26 44.630-44 55 09.53   ~96KM 18.4 VZNEOCPM49
     xkos464 4B2024 09 06.82584100 26 52.889-44 56 58.96   ~96KM 18.8 VZNEOCPM49
     xkos464 4B2024 09 06.82702500 27 01.091-44 58 48.09   ~96KM 17.7 VZNEOCPM49

Station data:
(L87) Moonbase South Observatory, Hakos  (S23.236420 E16.361890)  Namibia.
   Observer G. Duszanowicz. 0.36-m f/7.7 reflector + CCD.
(M28) Lesedi Telescope-SAAO Observatory, Sutherland  (S32.379790 E20.810640)
   South Africa.  Observer N. Erasmus. 1.0-m f/8 Reflector + CCD.
(M49) IAS Remote Observatory, Hakos  (S23.236549 E16.361720)  Namibia.
   Observers D. Husar, M. Junius. Measurer D. Husar. 0.25-m f/4.6 reflector +
   CCD.
(X09) Deep Random Survey, Rio Hurtado  (S30.526310 W70.853300)  Chile.

Orbital elements:  xkos464
   Perihelion 2024 Nov 3.72556 +/- 0.0078 TT = 17:24:48 (JD 2460618.22556)
Epoch 2024 Sep  6.0 TT = JDT 2460559.5   Earth MOID: 0.0014   Ma: 0.0958
M 318.25849106 +/- 0.015            (J2000 ecliptic)             AutoNEOCP
n   0.71078944 +/- 0.000177         Peri.   78.01197 +/- 0.0016
a   1.24348935 +/- 0.000206         Node   345.56884 +/- 0.00041
e   0.3632570 +/- 0.000153          Incl.    7.27593 +/- 0.0033
P   1.387/506.470d         H 28.59  G  0.15   U  6.9
q 0.79178303 +/- 5.89e-5    Q 1.69519566 +/- 0.000471
From 17 observations 2024 Sept. 5-6 (23.1 hr); mean residual 0".51
Residuals in arcseconds: 
240905 L87  .12-  .37+    240906 M28  .10+  .09-    240906 L87  .28-  .30+    
240905 L87  .62-  .25+    240906 M28  .55+  .90-    240906 L87  .16-  .17-    
240905 L87  .57-  1.2-    240906 M28  .56+  .52+    240906 M49  .18-  .08+    
240905 L87  .13-  .08-    240906 X09  1.3+  .47-    240906 M49  .29+  .22-    
240905 L87  .72-  .64+    240906 X09  .87-  .79+    240906 M49  .14-  .09+    
240906 L87  .31-  .10-    240906 L87  .21-  .25+    

Ephemerides (geocentric):
Date (UTC) HH   RA             Dec           delta  r     elong  mag " sig PA
---- --------  ------------   ------------  ------ ------ -----  --- --------
2024 09 07 19  10 14 54.849   -00 15 37.61  386479 1.0051  14.1 29?? 19.7  24
2024 09 07 20  10 20 25.791   +02 19 35.11  418706 1.0048  11.9 31?? 17.1  24
2024 09 07 21  10 25 09.746   +04 32 16.14  451840 1.0046  10.3 32?? 14.9  23
2024 09 07 22  10 29 15.887   +06 26 33.11  485696 1.0043   9.2 33?? 13.1  23
2024 09 07 23  10 32 51.187   +08 05 43.53  520131 1.0041   8.7 34?? 11.5  23
2024 09 08 00  10 36 01.026   +09 32 24.59  555035 1.0039   8.5 35?? 10.2  23
2024 09 08 01  10 38 49.615   +10 48 41.74  590324 1.0036   8.6 35?? 8.98  22
2024 09 08 02  10 41 20.299   +11 56 15.56  625933 1.0034   8.9 34?? 7.95  22
2024 09 08 03  10 43 35.760   +12 56 27.19  661809 1.0031   9.3 34?? 7.05  21
2024 09 08 04  10 45 38.174   +13 50 22.56  697910 1.0029   9.8 34?? 6.26  21
2024 09 08 05  10 47 29.326   +14 38 55.61  734204 1.0026  10.3 33?? 5.56  20
2024 09 08 06  10 49 10.691   +15 22 50.77  770661 1.0024  10.7 33?? 4.93  20
2024 09 08 07  10 50 43.499   +16 02 44.92  807260 1.0022  11.2 33?? 4.38  19
2024 09 08 08  10 52 08.783   +16 39 08.85  843983 1.0019  11.7 32?? 3.88  18
2024 09 08 09  10 53 27.417   +17 12 28.46  880812 1.0017  12.2 32?? 3.42  17
2024 09 08 10  10 54 40.147   +17 43 05.66  917736 1.0014  12.6 32?? 3.02  15
2024 09 08 11  10 55 47.609   +18 11 19.07  954743 1.0012  13.0 31?? 2.65  14
2024 09 08 12  10 56 50.353   +18 37 24.63  991824 1.0009  13.4 31?? 2.31  12
2024 09 08 13  10 57 48.856   +19 01 36.06  .00688 1.0007  13.8 31?? 2.01  10
2024 09 08 14  10 58 43.531   +19 24 05.19  .00713 1.0005  14.1 31?? 1.73   7
2024 09 08 15  10 59 34.741   +19 45 02.32  .00738 1.0002  14.4 31?? 1.48   4
2024 09 08 16  11 00 22.804   +20 04 36.41  .00763 1.0000  14.8 31?? 1.26 179
2024 09 08 17  11 01 08.000   +20 22 55.31  .00788 0.9997  15.1 31?? 1.06 174
2024 09 08 18  11 01 50.576   +20 40 05.94  .00812 0.9995  15.3 31?? .888 166
2024 09 08 19  11 02 30.754   +20 56 14.38  .00838 0.9993  15.6 31?? .749 156
2024 09 08 20  11 03 08.731   +21 11 26.03  .00863 0.9990  15.9 30?? .648 143
2024 09 08 21  11 03 44.680   +21 25 45.70  .00888 0.9988  16.1 30?? .592 128
2024 09 08 22  11 04 18.760   +21 39 17.64  .00913 0.9985  16.3 30?? .583 112
2024 09 08 23  11 04 51.113   +21 52 05.70  .00938 0.9983  16.6 30?? .616  98
2024 09 09 00  11 05 21.865   +22 04 13.29  .00963 0.9980  16.8 30?? .677  86
2024 09 09 01  11 05 51.133   +22 15 43.50  .00988 0.9978  17.0 30?? .756  77
2024 09 09 02  11 06 19.020   +22 26 39.10  .01013 0.9976  17.2 30?? .844  71
2024 09 09 03  11 06 45.622   +22 37 02.62  .01038 0.9973  17.4 30?? .936  66
2024 09 09 04  11 07 11.026   +22 46 56.32  .01063 0.9971  17.5 30?? 1.03  62
2024 09 09 05  11 07 35.310   +22 56 22.27  .01089 0.9968  17.7 30?? 1.12  59
2024 09 09 06  11 07 58.546   +23 05 22.36  .01114 0.9966  17.9 30?? 1.21  56
2024 09 09 07  11 08 20.800   +23 13 58.30  .01139 0.9964  18.0 30?? 1.30  54
2024 09 09 08  11 08 42.134   +23 22 11.65  .01164 0.9961  18.2 30?? 1.38  52
2024 09 09 09  11 09 02.602   +23 30 03.86  .01189 0.9959  18.3 30?? 1.46  51
2024 09 09 10  11 09 22.256   +23 37 36.24  .01215 0.9956  18.5 30?? 1.54  50
2024 09 09 11  11 09 41.144   +23 44 50.00  .01240 0.9954  18.6 30?? 1.61  48
2024 09 09 12  11 09 59.309   +23 51 46.25  .01265 0.9952  18.7 30?? 1.69  48
2024 09 09 13  11 10 16.792   +23 58 26.02  .01290 0.9949  18.8 30?? 1.76  47
2024 09 09 14  11 10 33.630   +24 04 50.26  .01316 0.9947  19.0 30?? 1.82  46
2024 09 09 15  11 10 49.858   +24 10 59.85  .01341 0.9944  19.1 30?? 1.89  45
2024 09 09 16  11 11 05.508   +24 16 55.59  .01366 0.9942  19.2 30?? 1.95  45
2024 09 09 17  11 11 20.611   +24 22 38.25  .01391 0.9940  19.3 30?? 2.01  44
2024 09 09 18  11 11 35.194   +24 28 08.51  .01417 0.9937  19.4 30?? 2.07  44